sat.trackr.live / text

‹ back to catalog

SAUDISAT 4

NORAD 40016 · 2014-033G

PAYLOAD ACTIVE UNKNOWN

§ Identity

Operator
Country
SAUD
Launch date
2014-06-19
Launch site
DLS
Launch vehicle
Mass (kg)
RCS (m²)
0.44

Purposes: tech_demo

External: N2YO · Heavens-Above · Gunter

§ Orbital elements

Epoch: 2026-09-13T04:04:39.263232Z

Period
97.32 min
Inclination
97.7716°
Eccentricity
0.0045517
Mean motion
14.79637727 rev/d
Perigee alt
598.6 km
Apogee alt
662.4 km
Semi-major
7,008.6 km
B*
7.8234e-5
RAAN
39.3342°
Arg perigee
145.5919°
Mean anomaly
214.8255°
Rev number
65,908

§ Raw data

SAUDISAT 41 40016U 14033G   26256.16989888  .00000545  00000+0  78234-4 0  99912 40016  97.7716  39.3342 0045517 145.5919 214.8255 14.79637727659088

JSON: /api/v1/satellites/40016 · /tle

For live sub-satellite position, see the globe view (requires WebGL).

§ Visibility from observer

Set your observer location to see the next 7 days of passes ≥ 10°. The values pass through the URL so the page stays shareable.

No JS? Fill the form by hand. The geolocation button needs JavaScript.

§ Radio — SatNOGS DB

ModeDescriptionDownlinkUplink
FM Mode U 401.600 MHz
FM Mode V TLM 148.035 MHz

2 transmitters · refreshed weekly from db.satnogs.org